Regional Weather Roundup
Issued by NWS Charleston, WV

Home | Current Version | Previous Version | Text Only | Print | Product List | Glossary Off
Versions: 1 2 3 4 5 6 7 8 9 10 11 12 13 14 15 16 17 18 19 20 21 22 23 24 25 26 27 28 29 30 31 32 33 34 35 36 37 38 39 40 41 42 43 44 45 46 47 48 49 50

000
ASUS41 KRLX 181110
RWRRLX
West Virginia Regional Weather Roundup
National Weather Service Charleston WV
700 AM EDT THU SEP 18 2014

Note: "fair" indicates few or no clouds below 12,000 feet with no
significant weather and/or obstructions to visibility.

WVZ003-181200-
Northern Panhandle of West Virginia

CITY           SKY/WX    TMP DP  RH WIND       PRES   REMARKS
WHEELING       MOCLDY    51  48  89 N5        30.04R
$$

WVZ009-181200-
Northwest West Virginia

CITY           SKY/WX    TMP DP  RH WIND       PRES   REMARKS
PARKERSBURG    CLEAR     51  49  92 N3        30.05R
$$

WVZ006-181200-
Western West Virginia

CITY           SKY/WX    TMP DP  RH WIND       PRES   REMARKS
HUNTINGTON     MOCLDY    54  53  97 CALM      30.01R
$$

WVZ015-181200-
West Central West Virginia

CITY           SKY/WX    TMP DP  RH WIND       PRES   REMARKS
CHARLESTON     CLOUDY    56  56 100 CALM      30.01R FOG
$$

WVZ031-181200-
North Central West Virginia

CITY           SKY/WX    TMP DP  RH WIND       PRES   REMARKS
CLARKSBURG     FOG       51  51 100 CALM      30.02R VSB 1/4
MORGANTOWN     FOG       53  50  89 CALM      30.04R VSB 1/4
$$

WVZ035-042-045-181200-
South Central West Virginia

CITY           SKY/WX    TMP DP  RH WIND       PRES   REMARKS
BECKLEY        CLOUDY    56  53  90 N3        30.04S
BLUEFIELD      FOG       54  52  93 SW3       30.04S VSB 1/2
LEWISBURG      PTCLDY    53  51  93 CALM      30.03S FOG
$$

WVZ047-181200-
Northern Mountains of West Virginia

CITY           SKY/WX    TMP DP  RH WIND       PRES   REMARKS
ELKINS         FOG       52  50  93 CALM      30.04R VSB 3/4
$$

WVZ052-181200-
Eastern Panhandle of West Virginia

CITY           SKY/WX    TMP DP  RH WIND       PRES   REMARKS
MARTINSBURG    PTCLDY    51  47  86 CALM      30.00R
PETERSBURG     MOCLDY    52  49  92 CALM      30.03R FOG
$$



USA.gov is the U.S. government's official web portal to all federal, state and local government web resources and services.